sat.trackr.live / text

‹ back to catalog

STARLINK-36394

NORAD 67566 · 2026-016F

PAYLOAD ACTIVE UNKNOWN

§ Identity

Operator
Country
US
Launch date
2026-01-25
Launch site
AFWTR
Launch vehicle
Mass (kg)
RCS (m²)

Purposes: comms

External: N2YO · Heavens-Above · Gunter

§ Orbital elements

Epoch: 2026-09-19T21:23:39.705792Z

Period
93.91 min
Inclination
97.2858°
Eccentricity
0.0001070
Mean motion
15.33447529 rev/d
Perigee alt
464.8 km
Apogee alt
466.3 km
Semi-major
6,843.7 km
B*
2.3697e-4
RAAN
321.5074°
Arg perigee
94.9395°
Mean anomaly
265.1970°
Rev number
3,662

§ Raw data

STARLINK-363941 67566U 26016F   26262.89143178  .00007583  00000+0  23697-3 0  99962 67566  97.2858 321.5074 0001070  94.9395 265.1970 15.33447529 36620

JSON: /api/v1/satellites/67566 · /tle

For live sub-satellite position, see the globe view (requires WebGL).

§ Visibility from observer

Set your observer location to see the next 7 days of passes ≥ 10°. The values pass through the URL so the page stays shareable.

No JS? Fill the form by hand. The geolocation button needs JavaScript.